CW2098 Weather Reports


Display with metric or nautical units.
time (UTC)temp
F
wind
direction
speed
MPH
gust
MPH
rain 1hr
in
rain 24hr
in
rain mn
in
humidity
%
barometer
mb
20260904215845 83 149 3.0 9.0 0.00 0.14 0.14 89 1001.8
20260904214843 84 44 3.0 7.0 0.00 0.14 0.14 89 1001.9
20260904213840 84 86 4.0 7.0 0.00 0.14 0.14 88 1002.3
20260904212840 84 82 3.0 6.0 0.00 0.14 0.14 88 1002.6
20260904211841 84 122 4.0 9.0 0.00 0.14 0.14 88 1002.5
20260904211320 84 85 3.0 6.0 0.00 0.14 0.14 88 1002.6
20260904205840 83 38 3.0 7.0 0.01 0.14 0.14 88 1002.7
20260904204842 83 116 5.0 9.0 0.01 0.14 0.14 88 1002.2
20260904203841 83 113 5.0 10.0 0.01 0.14 0.14 88 1002.0
20260904202840 83 75 4.0 9.0 0.01 0.14 0.14 90 1002.6
20260904201839 83 121 4.0 8.0 0.01 0.14 0.14 91 1000.9
20260904201325 83 77 4.0 8.0 0.00 0.13 0.13 92 1000.8
20260904195840 83 75 3.0 8.0 0.03 0.13 0.13 92 1001.2
20260904194839 83 105 3.0 6.0 0.03 0.13 0.13 92 1001.8
20260904194328 83 64 3.0 5.0 0.03 0.13 0.13 92 1002.0
20260904192839 82 42 3.0 6.0 0.04 0.13 0.13 92 1000.9
20260904191837 82 45 3.0 5.0 0.12 0.13 0.13 92 1000.7
20260904190837 82 55 1.0 3.0 0.13 0.13 0.13 92 1000.2
20260904185836 82 65 1.0 4.0 0.10 0.10 0.10 91 1000.2
20260904184835 83 171 4.0 10.0 0.10 0.10 0.10 91 1000.4
20260904183836 83 64 5.0 10.0 0.10 0.10 0.10 90 999.8
20260904182836 84 58 6.0 13.0 0.09 0.09 0.09 88 998.7
20260904181836 87 78 6.0 13.0 0.01 0.01 0.01 79 1002.6
20260904181324 87 76 7.0 13.0 0.00 0.00 0.00 78 1009.1
20260904175832 87 55 6.0 11.0 0.00 0.00 0.00 78 1006.9
20260904174832 87 61 5.0 10.0 0.00 0.00 0.00 78 1007.7
20260904173830 86 102 5.0 10.0 0.00 0.00 0.00 79 1011.9
20260904172830 86 93 5.0 10.0 0.00 0.00 0.00 82 1003.1
20260904171829 86 118 5.0 9.0 0.00 0.00 0.00 82 1003.2
20260904170830 86 83 4.0 8.0 0.00 0.00 0.00 82 1003.8
20260904165830 87 58 4.0 7.0 0.00 0.00 0.00 80 1003.4
20260904164830 87 25 4.0 7.0 0.00 0.00 0.00 79 1005.1
20260904163828 87 46 4.0 7.0 0.00 0.00 0.00 80 1007.5
20260904162828 88 51 3.0 8.0 0.00 0.00 0.00 79 1013.2
20260904160825 89 48 2.0 4.0 0.00 0.00 0.00 72 1010.5
20260904155825 88 38 2.0 6.0 0.00 0.00 0.00 73 1010.0
20260904154825 88 139 2.0 6.0 0.00 0.00 0.00 73 1010.1
20260904153825 87 189 3.0 8.0 0.00 0.00 0.00 75 1009.4
20260904153310 87 136 2.0 5.0 0.00 0.00 0.00 75 1009.9
20260904151826 87 103 2.0 5.0 0.00 0.00 0.00 75 1009.6
20260904150825 87 0 3.0 6.0 0.00 0.00 0.00 76 1008.3
20260904145822 86 199 3.0 7.0 0.00 0.00 0.00 77 1007.8
20260904144823 87 171 4.0 9.0 0.00 0.00 0.00 76 1008.5
20260904143824 86 166 3.0 5.0 0.00 0.00 0.00 77 1009.4
20260904142823 86 225 2.0 5.0 0.00 0.00 0.00 78 1007.0
20260904141823 86 197 3.0 7.0 0.00 0.00 0.00 78 1006.6
20260904140823 86 174 2.0 6.0 0.00 0.00 0.00 80 1008.8
20260904135821 85 116 2.0 5.0 0.00 0.00 0.00 81 1009.2
20260904134820 84 304 2.0 6.0 0.00 0.00 0.00 82 1006.6
20260904133821 84 64 2.0 4.0 0.00 0.00 0.00 84 1006.9
20260904132819 84 216 2.0 6.0 0.00 0.00 0.00 84 1005.8
20260904131821 84 161 2.0 5.0 0.00 0.00 0.00 85 1006.4
20260904130819 85 92 2.0 5.0 0.00 0.00 0.00 85 1005.5
20260904125820 84 89 2.0 5.0 0.00 0.00 0.00 87 1006.0
20260904125300 84 175 2.0 6.0 0.00 0.00 0.00 89 1004.5
20260904123815 83 60 2.0 5.0 0.00 0.00 0.00 93 1004.9
20260904122813 82 96 2.0 4.0 0.00 0.00 0.00 95 1004.4
20260904121812 81 93 2.0 4.0 0.00 0.00 0.00 96 1003.7
20260904120813 80 69 2.0 4.0 0.00 0.00 0.00 97 1003.6
20260904120246 80 61 2.0 3.0 0.00 0.00 0.00 97 1002.6
20260904114812 79 63 0.0 2.0 0.00 0.00 0.00 97 1001.3
20260904113812 79 58 0.0 2.0 0.00 0.00 0.00 97 1000.8
20260904112758 79 54 1.0 2.0 0.00 0.00 0.00 97 1000.3
20260904111758 78 69 0.0 1.0 0.00 0.00 0.00 97 999.8
20260904110758 78 0 0.0 1.0 0.00 0.00 0.00 97 999.7
20260904110237 78 0 0.0 0.0 0.00 0.00 0.00 97 999.4
20260904104745 79 0 0.0 1.0 0.00 0.00 0.00 97 999.5
20260904103745 79 0 0.0 1.0 0.00 0.00 0.00 97 999.5
20260904102745 79 0 0.0 1.0 0.00 0.00 0.00 97 999.7
20260904101745 79 0 0.0 1.0 0.00 0.00 0.00 96 999.8
20260904100745 79 54 1.0 1.0 0.00 0.00 0.00 96 999.9
20260904095729 79 68 1.0 2.0 0.00 0.00 0.00 96 1000.0
20260904094715 78 50 0.0 2.0 0.00 0.00 0.00 96 999.7
20260904093728 79 0 0.0 1.0 0.00 0.00 0.00 96 999.6
20260904092714 79 0 1.0 2.0 0.00 0.00 0.00 96 999.5
20260904091713 78 0 0.0 0.0 0.00 0.00 0.00 96 999.1
20260904091149 78 0 0.0 1.0 0.00 0.00 0.00 96 998.7
20260904085713 78 0 0.0 0.0 0.00 0.00 0.00 96 999.0
20260904084714 78 0 0.0 0.0 0.00 0.00 0.00 96 998.9
20260904084439 78 0 0.0 0.0 0.00 0.00 0.00 96 998.7
20260904082715 79 0 0.0 1.0 0.00 0.00 0.00 96 998.9
20260904081700 79 0 1.0 1.0 0.00 0.00 0.00 96 999.1
20260904080701 79 74 1.0 2.0 0.00 0.00 0.00 96 999.1
20260904080137 79 42 1.0 2.0 0.00 0.00 0.00 96 999.3
20260904074701 79 0 0.0 2.0 0.00 0.00 0.00 96 999.3
20260904073701 79 0 0.0 2.0 0.00 0.00 0.00 96 999.4
20260904072700 78 0 0.0 1.0 0.00 0.00 0.00 96 999.5
20260904071700 78 46 0.0 2.0 0.00 0.00 0.00 95 999.5
20260904070657 78 50 0.0 1.0 0.00 0.00 0.00 95 999.4
20260904065657 78 49 0.0 1.0 0.00 0.00 0.00 95 999.1
20260904065135 78 0 0.0 1.0 0.00 0.00 0.00 95 998.9
20260904063653 78 0 0.0 2.0 0.00 0.00 0.00 95 998.7
20260904062654 78 45 0.0 1.0 0.00 0.00 0.00 95 998.9
20260904061653 78 0 0.0 0.0 0.00 0.00 0.00 95 999.4
20260904060653 78 0 0.0 2.0 0.00 0.00 0.00 95 999.3
20260904055654 78 38 0.0 2.0 0.00 0.00 0.00 95 999.1
20260904055140 79 106 0.0 2.0 0.00 0.00 0.00 95 999.6
20260904054131 79 0 1.0 2.0 0.00 0.00 0.00 94 999.7
20260904052704 79 90 0.0 2.0 0.00 0.00 0.00 94 999.6
20260904050651 79 0 0.0 1.0 0.00 0.00 0.00 94 999.8
20260904045651 79 0 0.0 1.0 0.00 0.00 0.00 94 999.9
20260904044652 79 0 0.0 1.0 0.00 0.00 0.00 93 1000.0
20260904043652 79 0 0.0 1.0 0.00 0.00 0.00 93 999.9
20260904043130 80 0 0.0 1.0 0.00 0.00 0.00 93 1000.1
20260904041653 80 0 1.0 2.0 0.00 0.00 0.00 93 1000.2
20260904040652 80 0 1.0 3.0 0.00 0.00 0.00 93 1000.3
20260904035651 80 55 1.0 3.0 0.00 0.00 0.00 93 1000.4
20260904034650 80 29 1.0 5.0 0.00 0.00 0.00 92 1000.5
20260904033651 80 76 1.0 4.0 0.00 0.00 0.00 92 1000.5
20260904032651 80 99 2.0 4.0 0.00 0.00 0.00 92 1000.5
20260904031647 80 88 1.0 3.0 0.00 0.00 0.00 92 1000.4
20260904030644 80 25 2.0 4.0 0.00 0.00 0.00 91 1000.7
20260904025646 80 64 2.0 3.0 0.00 0.00 0.00 91 1000.5
20260904024645 80 66 1.0 3.0 0.00 0.00 0.00 91 1000.0
20260904023644 80 66 1.0 3.0 0.00 0.00 0.00 90 999.9
20260904022645 80 12 1.0 3.0 0.00 0.00 0.00 90 999.9
20260904021646 80 100 1.0 2.0 0.00 0.00 0.00 90 999.9
20260904020643 80 135 2.0 4.0 0.00 0.00 0.00 90 999.9
20260904015642 80 73 2.0 4.0 0.00 0.00 0.00 90 999.9
20260904014643 80 56 2.0 4.0 0.00 0.00 0.00 90 999.9
20260904012643 80 48 2.0 4.0 0.00 0.00 0.00 90 999.8
20260904011643 80 81 2.0 4.0 0.00 0.00 0.00 90 999.7
20260904010643 80 84 2.0 3.0 0.00 0.00 0.00 89 999.5
20260904005644 80 83 1.0 3.0 0.00 0.00 0.00 89 999.1
20260904004640 81 46 2.0 4.0 0.00 0.00 0.00 88 999.3
20260904003642 81 69 2.0 4.0 0.00 0.00 0.00 88 999.6
20260904002642 81 89 2.0 4.0 0.00 0.00 0.00 87 999.6
20260904001642 81 52 2.0 3.0 0.00 0.00 0.00 87 999.6
20260904001117 81 106 2.0 3.0 0.00 0.00 0.00 87 999.6
20260903235642 81 78 1.0 2.0 0.00 0.00 0.00 87 999.3
20260903234655 82 133 1.0 3.0 0.00 0.00 0.00 86 999.4
20260903233639 82 62 2.0 4.0 0.00 0.00 0.00 86 999.6
20260903232639 82 47 2.0 5.0 0.00 0.00 0.00 85 999.9
20260903232108 82 37 3.0 7.0 0.00 0.00 0.00 85 1000.2
20260903230648 83 44 3.0 6.0 0.00 0.00 0.00 84 1000.4
20260903225635 83 12 3.0 8.0 0.00 0.00 0.00 84 1000.6
20260903225118 83 40 3.0 6.0 0.00 0.00 0.00 83 1000.6
20260903223636 83 70 4.0 7.0 0.00 0.00 0.00 83 1000.7
20260903222636 83 59 3.0 6.0 0.00 0.00 0.00 83 1000.9
20260903221633 83 74 3.0 6.0 0.00 0.01 0.00 82 1001.0
20260903221125 83 49 4.0 7.0 0.00 0.03 0.00 81 1001.2